[ ตารางข้อมูล ] [ Min-Max ] [ วันนี้2 ] [ วันนี้4 ] [ เทียบ-A 3วัน ] [ เทียบ-B 4วัน ]   

วันนี้4   [ ◀ ช่วงเก่ากว่า ] [ ช่วงที่ 24 ] [ ช่วงใหม่กว่า ▶ ] [ ล่าสุด ]    [ 3 ชั่วโมง ] [ 6 ชั่วโมง ] [ 12 ชั่วโมง ] [ 24 ชั่วโมง ]   วันนี้4

อุณภูมิในตู้ Knockdown4529  ราย 24 ชั่วโมง  ที่วัดได้ ในช่วงวันเวลา 08/08/2026 (23:12) ถึง 09/08/2026 (23:12) 
ความชื้นในตู้ Knockdown4529  ราย 24 ชั่วโมง  ที่วัดได้ ในช่วงวันเวลา 08/08/2026 (23:12) ถึง 09/08/2026 (23:12) 
การใช้ไฟฟ้าในตู้ Knockdown4529  ราย 24 ชั่วโมง  ที่วัดได้ ในช่วงวันเวลา 08/08/2026 (23:12) ถึง 09/08/2026 (23:12) 

  DS18B20SHTC3PZEM-004TWiFi 
IDDate d/m/Y & Timedata1
สูง
data2
ต่ำ
data3
นอก
temp
pcb
hum
pcb
VoltAmpWattrssiTime
 11131  09/08/2026 23:09:55  30.8  30.9  28.7  32.0  67.8  225.2  0.04  4.6  -77  23:09 
 11130  09/08/2026 23:05:12  30.8  30.9  28.9  31.9  67.7  224.9  0.04  4.6  -78  23:05 
 11129  09/08/2026 23:00:29  30.9  31.0  29.0  32.0  67.8  225.4  0.04  4.6  -78  23:00 
 11128  09/08/2026 22:55:45  30.9  31.0  29.1  31.9  67.8  229.2  0.04  4.6  -78  22:55 
 11127  09/08/2026 22:51:02  30.9  31.0  29.2  32.1  67.8  225.7  0.04  4.6  -78  22:51 
 11126  09/08/2026 22:46:19  30.9  31.0  29.2  32.0  67.6  227.7  0.04  4.6  -78  22:46 
 11125  09/08/2026 22:41:36  30.9  31.1  29.3  32.1  67.7  226.9  0.04  4.6  -79  22:41 
 11124  09/08/2026 22:36:53  31.0  31.1  29.2  32.0  67.8  226.7  0.04  4.6  -80  22:36 
 11123  09/08/2026 22:32:10  31.0  31.1  29.3  31.9  67.6  225.5  0.04  4.6  -77  22:32 
 11122  09/08/2026 22:27:27  31.1  31.1  29.2  32.1  67.8  227.3  0.04  4.6  -77  22:27 
 11121  09/08/2026 22:22:43  31.1  31.1  29.1  32.0  67.6  225.7  0.04  4.6  -78  22:22 
 11120  09/08/2026 22:18:00  31.1  31.1  29.0  32.0  67.6  227.1  0.04  4.6  -77  22:18 
 11119  09/08/2026 22:13:16  31.1  31.2  29.0  32.1  67.5  226.6  0.04  4.6  -79  22:13 
 11118  09/08/2026 22:08:33  31.1  31.2  29.1  32.2  67.6  225.8  0.04  4.6  -80  22:08 
 11117  09/08/2026 22:03:46  31.1  31.2  29.2  32.1  67.7  226.5  0.04  4.6  -79  22:03 
 11116  09/08/2026 21:59:03  31.2  31.2  29.2  32.2  67.6  226.9  0.04  4.6  -77  21:59 
 11115  09/08/2026 21:54:20  31.2  31.2  29.4  32.1  67.5  226.8  0.04  4.6  -76  21:54 
 11114  09/08/2026 21:49:36  31.2  31.2  29.5  32.3  67.6  227.2  0.04  4.6  -78  21:49 
 11113  09/08/2026 21:44:52  31.2  31.3  29.5  32.1  67.6  226.5  0.04  4.6  -77  21:44 
 11112  09/08/2026 21:40:09  31.3  31.3  29.5  32.2  67.5  226.1  0.04  4.6  -77  21:40 
 11111  09/08/2026 21:35:26  31.3  31.4  29.5  32.3  67.5  225.4  0.04  4.6  -76  21:35 
 11110  09/08/2026 21:30:43  31.4  31.4  29.5  32.3  67.5  223.9  0.04  4.6  -76  21:30 
 11109  09/08/2026 21:26:00  31.4  31.4  29.4  32.1  67.5  225.4  0.04  4.6  -78  21:26 
 11108  09/08/2026 21:21:16  31.4  31.4  29.4  32.3  67.3  225.9  0.04  4.6  -79  21:21 

Data every 5 minute.


ใช้เวลาประมวลผล 0.05388 วินาที